Date,TemperatureHighF,TemperatureAvgF,TemperatureLowF,DewpointHighF,DewpointAvgF,DewpointLowF,HumidityHigh,HumidityAvg,HumidityLow,PressureMaxIn,PressureMinIn,WindSpeedMaxMPH,WindSpeedAvgMPH,GustSpeedMaxMPH,PrecipitationSumIn
2013-1-1,35,29,16,25,18,6,70,62,49,29.90,29.68,29,2,29,0.04
2013-1-2,29,17,7,16,7,-1,75,66,56,30.08,29.87,16,1,16,0.00
2013-1-3,24,11,-1,7,0,-8,75,61,36,30.12,29.96,11,0,11,0.00
2013-1-4,37,26,10,24,17,3,74,68,57,29.96,29.78,19,2,20,0.02
2013-1-5,41,31,19,26,20,12,76,65,43,30.23,29.81,19,1,21,0.03
2013-1-6,43,30,20,31,21,12,78,67,60,30.20,29.90,13,1,14,0.03
2013-1-7,39,28,20,26,16,10,76,60,47,30.38,29.93,12,0,13,0.01
2013-1-8,45,32,21,29,20,9,69,62,52,30.34,30.23,20,2,20,0.01
2013-1-9,42,33,20,31,22,8,70,62,52,30.37,29.97,17,1,17,0.00
2013-1-10,47,39,30,29,25,21,69,57,43,30.51,30.00,22,2,24,0.00
2013-1-11,38,31,23,28,20,11,70,62,47,30.50,30.19,2,0,3,0.10
2013-1-12,40,37,35,28,19,16,69,48,43,30.20,30.09,3,0,3,0.02
2013-1-13,39,39,37,29,29,27,68,67,67,30.12,30.05,2,0,3,0.00
2013-1-14,62,50,39,49,33,24,68,54,38,30.23,29.80,14,1,14,0.00
2013-1-15,40,36,30,29,25,20,70,65,54,30.29,30.18,6,0,7,0.00
2013-1-16,32,31,29,23,16,13,70,53,47,30.22,29.80,5,0,5,0.03
2013-1-17,40,32,27,30,18,10,68,57,45,30.07,29.80,15,0,15,0.22
2013-1-18,27,20,15,14,4,-2,66,50,36,30.42,30.02,21,1,21,0.00
2013-1-19,46,35,19,29,22,8,72,60,46,30.35,29.84,22,3,26,0.11
2013-1-20,52,39,27,32,25,11,67,57,40,29.89,29.50,33,3,33,0.00
2013-1-21,28,23,18,16,9,5,70,55,43,30.07,29.77,18,1,18,0.00
2013-1-22,25,18,10,12,5,0,72,57,44,30.05,29.72,14,1,17,0.00
2013-1-23,17,9,4,0,-5,-8,67,51,35,30.11,30.03,10,1,17,0.00
2013-1-24,19,9,-1,-2,-7,-10,66,48,33,30.21,30.03,20,2,25,0.00
2013-1-25,24,15,5,8,-3,-9,67,44,31,30.28,30.03,14,0,15,0.00
2013-1-26,25,16,10,9,2,-5,73,55,33,30.21,29.98,22,1,22,0.00
2013-1-27,30,19,8,6,2,-2,70,49,32,30.44,30.20,18,1,20,0.00
2013-1-28,29,22,14,18,9,1,68,56,40,30.43,29.99,9,0,10,0.00
2013-1-29,33,29,24,21,14,8,61,52,46,30.17,29.99,5,0,5,0.12
2013-1-30,59,45,32,34,21,13,46,39,29,30.12,29.41,21,3,21,0.15
2013-1-31,60,46,28,41,26,16,66,48,31,29.55,28.93,26,4,27,0.46
2013-2-1,34,27,20,18,10,5,67,49,38,30.05,29.55,17,2,19,0.00
2013-2-2,30,23,14,12,8,4,67,53,41,30.22,30.01,14,1,14,0.00
2013-2-3,26,24,20,17,13,8,69,63,57,30.02,29.70,7,0,8,0.00
2013-2-4,31,22,18,15,9,5,71,57,45,29.91,29.69,17,1,23,0.01
2013-2-5,28,23,18,17,12,7,69,62,51,30.00,29.91,9,0,10,0.00
2013-2-6,39,28,21,25,14,7,68,54,45,30.27,29.89,16,1,16,0.02
2013-2-7,31,22,12,8,5,2,71,48,33,30.50,30.26,14,0,16,0.00
2013-2-8,28,23,17,16,10,4,69,57,47,30.47,29.60,22,2,22,0.00
2013-2-9,20,17,13,8,5,3,68,58,54,30.17,29.57,25,5,27,0.00
2013-2-10,37,19,1,26,10,-5,74,67,37,30.37,30.17,16,1,17,0.19
2013-2-11,34,26,10,15,11,2,72,54,43,30.32,29.58,4,0,6,0.31
2013-2-12,43,36,31,32,22,11,68,57,40,29.84,29.58,16,2,20,0.12
2013-2-13,42,32,24,28,21,13,69,64,53,29.84,29.66,11,0,11,0.03
2013-2-14,43,34,28,26,22,19,69,61,43,29.96,29.68,10,0,10,0.01
2013-2-15,50,36,26,35,23,12,68,59,46,29.97,29.86,14,1,14,0.00
2013-2-16,39,32,28,28,17,11,72,53,45,29.92,29.69,15,0,15,0.00
2013-2-17,29,22,17,20,11,1,94,65,45,29.69,29.37,27,3,29,0.00
2013-2-18,33,22,14,6,2,0,56,43,26,30.13,29.65,22,2,26,0.01
2013-2-19,45,34,20,40,23,4,98,67,47,30.14,29.55,13,1,13,0.22
2013-2-20,40,32,26,40,22,12,98,66,43,29.75,29.50,22,2,22,0.14
2013-2-21,34,27,23,16,14,11,70,57,42,30.17,29.74,23,2,26,0.00
2013-2-22,42,31,21,26,21,16,86,68,42,30.37,30.17,12,1,12,0.00
2013-2-23,38,33,27,32,29,23,97,85,72,30.31,29.89,4,0,4,0.00
2013-2-24,35,33,31,35,32,30,98,97,94,29.89,29.67,11,1,12,0.47
2013-2-25,40,34,29,34,32,28,98,92,75,30.21,29.86,4,0,4,0.29
2013-2-26,44,34,25,37,29,24,100,84,60,30.31,30.13,4,0,5,0.04
2013-2-27,40,37,34,39,36,30,98,96,85,30.13,29.54,11,1,12,0.98
2013-2-28,47,38,33,38,35,32,99,90,69,29.61,29.50,6,0,7,0.00
2013-3-1,41,36,30,34,30,28,100,80,64,29.66,29.50,15,1,15,0.00
2013-3-2,44,37,30,31,28,25,85,71,55,29.65,29.59,12,0,14,0.00
2013-3-3,42,35,32,34,29,25,93,80,66,29.62,29.53,10,0,12,0.01
2013-3-4,40,34,29,29,25,22,84,70,52,29.72,29.55,19,2,20,0.00
2013-3-5,47,36,30,32,27,23,94,71,50,30.04,29.72,16,1,18,0.00
2013-3-6,40,36,32,36,33,30,97,90,74,30.08,30.01,14,2,15,0.12
2013-3-7,34,32,31,32,30,28,95,91,84,30.05,29.97,14,3,16,0.07
2013-3-8,38,33,30,33,29,24,97,88,68,30.13,29.91,12,2,12,0.03
2013-3-9,52,36,24,32,25,21,95,69,34,30.33,30.12,10,1,11,0.50
2013-3-10,46,32,19,34,27,18,100,83,58,30.39,30.28,6,0,6,0.00
2013-3-11,55,44,34,40,36,32,95,75,49,30.24,30.11,12,2,13,0.00
2013-3-12,55,48,40,52,46,39,99,96,84,30.13,29.69,14,1,17,0.38
2013-3-13,53,44,32,51,32,20,99,67,33,29.76,29.67,14,1,17,0.01
2013-3-14,39,31,23,24,17,8,76,55,38,29.81,29.69,21,2,21,0.00
2013-3-15,42,30,20,28,14,5,78,53,26,29.85,29.60,17,2,19,0.00
2013-3-16,41,34,28,26,17,10,75,50,29,29.85,29.64,10,1,13,0.00
2013-3-17,40,30,20,19,12,5,87,50,26,30.29,29.85,19,1,19,0.00
2013-3-18,40,28,16,27,11,2,92,50,25,30.43,30.22,9,0,9,0.00
2013-3-19,35,32,28,34,31,26,97,96,92,30.22,29.60,10,1,14,0.14
2013-3-20,40,31,24,27,23,20,96,75,48,29.79,29.67,18,1,20,0.44
2013-3-21,41,29,18,29,22,16,95,78,38,29.79,29.58,9,0,9,0.19
2013-3-22,42,33,25,28,21,17,100,64,38,29.71,29.58,14,1,14,0.09
2013-3-23,45,35,25,24,21,18,81,59,37,29.76,29.60,27,2,27,0.00
2013-3-24,46,33,30,30,24,21,86,68,44,29.79,29.72,14,1,17,0.00
2013-3-25,45,36,28,34,30,25,93,79,63,29.75,29.49,12,1,14,0.00
2013-3-26,52,41,34,30,26,20,79,57,31,29.75,29.51,12,1,13,0.00
2013-3-27,55,41,26,32,25,22,92,57,30,29.85,29.71,15,1,19,0.00
2013-3-28,49,42,36,36,34,30,93,75,48,29.99,29.84,9,0,10,0.01
2013-3-29,59,48,32,38,33,29,93,58,36,30.02,29.93,12,1,12,0.00
2013-3-30,60,46,32,34,25,14,91,51,18,30.07,29.97,13,1,15,0.00
2013-3-31,62,44,25,41,28,23,93,61,24,30.09,29.71,15,2,16,0.03
2013-4-1,64,47,34,46,37,13,97,71,38,29.76,29.47,18,2,21,0.15
2013-4-2,43,35,28,19,15,11,58,45,32,29.91,29.75,23,2,26,0.00
2013-4-3,49,37,29,18,15,10,61,42,21,30.13,29.89,19,2,20,0.00
2013-4-4,58,42,27,26,18,13,66,41,18,30.27,30.01,15,2,18,0.00
2013-4-5,64,47,35,31,27,20,75,50,20,30.02,29.60,13,2,19,0.00
2013-4-6,51,38,28,27,14,5,63,39,18,30.31,29.85,20,2,21,0.00
2013-4-7,58,41,24,40,28,17,88,61,27,30.31,29.96,18,3,24,0.00
2013-4-8,69,53,41,44,40,33,97,66,28,30.06,29.92,10,1,12,0.00
2013-4-9,74,56,45,54,45,40,96,69,38,30.06,29.83,21,1,21,0.04
2013-4-10,67,52,45,51,46,42,97,83,53,29.99,29.83,5,0,6,0.21
2013-4-11,55,47,42,48,40,27,98,79,47,30.12,29.79,12,0,12,0.09
2013-4-12,42,38,36,38,36,33,97,92,76,30.14,29.77,8,1,14,0.54
2013-4-13,55,43,35,41,38,34,97,81,53,29.91,29.74,5,1,11,0.05
2013-4-14,56,45,36,41,34,27,95,67,40,30.19,29.88,15,1,21,0.00
2013-4-15,60,44,29,39,33,27,96,68,34,30.36,30.19,8,0,9,0.00
2013-4-16,67,52,36,51,43,34,97,73,46,30.38,30.02,20,3,20,0.00
2013-4-17,70,59,45,53,38,28,89,50,23,30.31,30.02,18,1,22,0.01
2013-4-18,66,50,34,45,35,29,94,60,35,30.40,30.11,14,1,14,0.00
2013-4-19,78,63,52,63,57,45,98,82,54,30.11,29.60,21,4,22,0.00
2013-4-20,67,54,44,63,42,25,96,68,40,30.19,29.56,16,2,19,0.55
2013-4-21,57,43,32,30,25,20,85,50,25,30.65,30.18,15,1,17,0.00
2013-4-22,54,42,29,36,31,24,97,69,34,30.73,30.57,9,1,12,0.00
2013-4-23,42,40,36,41,38,31,97,90,77,30.57,30.10,10,1,11,0.00
2013-4-24,77,57,41,55,45,37,97,70,25,30.10,29.75,15,2,16,0.01
2013-4-25,68,56,42,53,38,26,94,55,22,30.24,29.79,16,1,16,0.04
2013-4-26,64,48,34,40,36,31,96,66,35,30.40,30.24,6,0,7,0.00
2013-4-27,67,51,35,42,37,33,99,64,32,30.39,30.25,9,0,9,0.00
2013-4-28,72,54,36,44,38,30,97,58,25,30.31,30.18,7,0,10,0.00
2013-4-29,74,57,44,51,39,29,92,55,27,30.24,30.15,12,1,13,0.00
2013-4-30,72,56,43,39,32,19,81,45,17,30.34,30.22,7,0,7,0.00
2013-5-1,72,54,35,41,36,30,98,57,23,30.44,30.33,6,0,6,0.00
2013-5-2,83,56,39,51,41,36,98,64,23,30.46,30.31,7,0,8,0.00
2013-5-3,65,51,41,47,42,38,92,71,45,30.50,30.35,7,0,9,0.00
2013-5-4,68,50,36,48,39,21,99,72,22,30.35,30.27,7,0,9,0.00
2013-5-5,63,47,32,45,38,31,99,75,44,30.31,30.22,7,0,7,0.00
2013-5-6,75,52,34,52,43,33,99,78,29,30.27,30.11,7,0,7,0.00
2013-5-7,80,62,43,60,52,41,99,73,39,30.15,30.05,7,0,9,0.00
2013-5-8,76,62,51,65,58,49,99,88,63,30.17,30.02,9,0,9,0.11
2013-5-9,67,60,56,64,58,55,99,96,81,30.02,29.86,4,0,4,0.59
2013-5-10,82,66,54,65,58,54,100,80,41,29.93,29.86,7,0,7,0.01
2013-5-11,70,64,58,64,60,55,97,88,76,29.88,29.66,17,1,17,0.04
2013-5-12,72,61,49,61,52,32,98,76,42,29.78,29.53,12,0,18,0.17
2013-5-13,62,49,39,38,33,28,82,56,32,30.01,29.78,19,1,19,0.00
2013-5-14,61,49,36,38,34,29,93,60,35,30.02,29.94,14,0,14,0.00
2013-5-15,68,51,35,52,42,33,96,75,31,30.03,29.64,13,1,15,0.01
2013-5-16,84,65,46,50,43,32,97,54,22,29.78,29.59,18,1,25,0.01
2013-5-17,73,60,49,49,43,37,86,55,32,30.19,29.78,16,1,19,0.00
2013-5-18,76,58,42,52,45,36,98,67,27,30.28,30.18,10,0,11,0.00
2013-5-19,75,57,46,56,51,44,98,82,43,30.32,30.19,9,0,9,0.09
2013-5-20,83,67,55,68,61,55,99,83,53,30.19,29.88,6,0,13,0.04
2013-5-21,84,63,52,71,58,50,99,86,57,29.99,29.83,7,0,7,0.00
2013-5-22,69,57,50,65,55,49,99,94,83,30.04,29.85,10,0,11,0.36
2013-5-23,76,63,54,71,61,53,100,94,82,29.91,29.77,14,1,14,0.24
2013-5-24,71,63,49,68,61,48,99,95,82,29.80,29.62,14,0,14,0.28
2013-5-25,52,47,41,52,47,40,100,98,96,29.79,29.68,19,1,20,0.30
2013-5-26,60,48,40,46,41,39,99,78,51,30.07,29.69,18,1,20,0.06
2013-5-27,76,57,39,47,41,36,98,63,26,30.15,30.04,16,1,20,0.00
2013-5-28,76,58,41,55,48,40,99,72,31,30.21,30.12,6,0,6,0.00
2013-5-29,69,62,57,66,60,53,100,94,86,30.16,29.96,6,0,7,1.18
2013-5-30,90,74,61,72,66,61,100,80,49,30.05,29.97,12,0,14,0.00
2013-5-31,96,79,63,74,67,63,100,72,37,30.06,29.89,11,0,11,0.00
2013-6-1,94,79,65,72,68,63,93,70,44,29.94,29.81,13,1,13,0.00
2013-6-2,91,78,68,73,68,65,94,74,45,29.84,29.68,19,2,20,0.00
2013-6-3,79,69,60,71,64,47,99,84,59,29.82,29.72,11,0,11,0.55
2013-6-4,74,61,48,54,48,44,89,64,39,30.06,29.80,18,1,18,0.00
2013-6-5,78,62,48,57,50,45,99,69,37,30.16,30.05,8,0,10,0.00
2013-6-6,76,63,52,61,53,49,93,70,47,30.16,30.06,6,0,10,0.02
2013-6-7,58,56,53,58,55,53,100,98,91,30.08,29.78,4,0,5,2.12
2013-6-8,79,63,53,68,59,53,100,87,60,29.97,29.60,13,0,18,1.04
2013-6-9,81,68,54,65,58,53,99,74,42,30.13,29.97,11,0,12,0.00
2013-6-10,70,61,53,63,58,52,99,90,72,30.18,29.99,4,0,4,0.75
2013-6-11,63,58,56,60,57,55,99,97,87,30.00,29.55,10,0,10,0.97
2013-6-12,73,63,56,61,56,53,99,82,56,29.79,29.53,20,1,28,0.06
2013-6-13,66,57,50,61,55,50,99,93,77,29.79,29.66,7,0,7,0.75
2013-6-14,75,60,52,62,56,52,100,86,54,29.74,29.62,6,0,9,1.06
2013-6-15,82,66,52,57,51,43,96,63,28,29.91,29.74,11,0,15,0.00
2013-6-16,76,65,53,64,57,49,93,76,47,29.91,29.67,10,0,10,0.00
2013-6-17,87,69,57,67,61,56,98,79,41,29.88,29.75,13,1,14,0.75
2013-6-18,75,62,57,68,61,57,100,95,75,29.92,29.85,7,0,7,0.30
2013-6-19,79,65,56,61,56,48,99,77,36,30.12,29.88,6,0,6,0.13
2013-6-20,82,66,49,61,54,48,99,70,37,30.23,30.12,9,0,9,0.00
2013-6-21,86,71,57,67,60,54,93,71,35,30.22,30.15,9,0,9,0.00
2013-6-22,85,72,60,69,63,58,93,74,46,30.19,30.07,11,0,12,0.00
2013-6-23,90,76,64,77,67,58,87,74,58,30.12,29.95,12,1,13,0.00
2013-6-24,94,80,70,76,71,68,96,77,51,29.98,29.83,11,1,12,0.03
2013-6-25,92,79,68,75,70,66,97,76,49,29.89,29.68,10,0,15,0.00
2013-6-26,86,75,68,75,70,66,97,85,63,29.82,29.68,8,0,9,0.03
2013-6-27,76,67,62,70,65,61,100,95,82,29.84,29.72,3,0,4,0.07
2013-6-28,83,70,60,76,68,59,100,93,75,29.74,29.45,14,0,14,0.31
2013-6-29,86,75,70,75,70,67,98,85,59,29.69,29.48,13,1,13,0.00
2013-6-30,87,76,67,77,71,66,99,85,65,29.90,29.69,7,0,9,0.00
2013-7-1,84,75,71,77,73,70,98,93,76,30.05,29.90,6,0,7,0.03
2013-7-2,85,73,62,76,70,61,98,90,70,30.18,30.04,7,0,10,0.00
2013-7-3,90,74,62,77,69,60,99,85,59,30.17,30.09,13,0,13,0.00
2013-7-4,94,82,71,78,74,70,99,79,55,30.17,30.05,13,0,16,0.00
2013-7-5,94,84,74,79,75,72,96,76,54,30.12,29.99,12,0,12,0.00
2013-7-6,93,82,71,77,72,66,96,75,49,30.04,29.94,13,0,13,0.00
2013-7-7,93,77,66,78,71,64,97,83,54,29.99,29.86,7,0,7,0.02
2013-7-8,87,76,67,78,72,66,99,89,67,30.04,29.87,7,0,7,0.04
2013-7-9,73,68,65,70,66,64,98,93,86,30.08,30.01,3,0,3,0.00
2013-7-10,86,74,66,78,71,65,99,91,73,30.05,29.76,12,0,12,0.04
2013-7-11,83,75,71,77,73,69,100,92,77,29.89,29.74,9,0,12,0.03
2013-7-12,82,70,65,69,63,58,96,79,55,30.17,29.89,6,0,6,0.00
2013-7-13,80,71,65,73,67,60,97,87,76,30.28,30.16,3,0,4,0.03
2013-7-14,92,78,68,78,72,67,99,84,51,30.27,30.16,6,0,7,0.00
2013-7-15,95,80,69,77,73,69,100,81,49,30.17,30.05,7,0,11,0.00
2013-7-16,98,80,66,76,70,66,99,74,39,30.13,30.06,11,0,13,0.00
2013-7-17,96,82,69,76,72,68,99,75,43,30.15,29.95,11,0,11,0.00
2013-7-18,95,82,74,77,73,70,94,76,45,29.97,29.90,8,0,11,0.00
2013-7-19,99,84,71,79,74,69,98,74,43,29.91,29.67,14,1,18,0.00
2013-7-20,94,83,71,79,75,66,93,78,52,29.77,29.61,11,0,13,0.03
2013-7-21,84,73,66,71,66,64,95,80,56,29.95,29.77,5,0,5,0.00
2013-7-22,86,72,64,74,68,63,99,86,57,29.98,29.85,5,0,6,0.00
2013-7-23,81,73,69,78,72,67,100,97,87,29.85,29.50,7,0,13,1.31
2013-7-24,86,76,65,76,69,54,100,81,57,29.93,29.55,10,0,11,0.00
2013-7-25,65,60,58,59,56,50,99,85,68,30.08,29.93,7,0,10,1.44
2013-7-26,71,64,59,70,63,59,100,97,90,30.04,29.91,10,0,12,0.23
2013-7-27,86,71,58,71,65,57,100,83,49,30.03,29.95,5,0,9,0.00
2013-7-28,86,72,64,74,68,62,98,89,63,29.99,29.92,4,0,4,0.00
2013-7-29,86,73,66,74,69,66,99,88,63,30.01,29.92,7,0,7,0.05
2013-7-30,85,71,60,67,62,58,99,76,41,30.07,30.00,7,0,11,0.00
2013-7-31,84,70,59,66,62,56,99,77,44,30.11,30.00,7,0,7,0.00
2013-8-1,83,70,60,70,64,60,99,85,56,30.02,29.84,7,0,8,0.00
2013-8-2,84,71,64,72,64,59,99,82,48,29.85,29.76,9,0,13,0.55
2013-8-3,80,70,63,68,64,62,97,82,60,29.83,29.74,10,0,11,0.01
2013-8-4,82,68,57,64,59,54,95,76,44,29.86,29.73,10,0,13,0.00
2013-8-5,80,64,52,55,51,45,98,67,31,30.02,29.86,15,1,18,0.00
2013-8-6,80,64,48,62,54,47,99,74,40,30.12,30.02,5,0,5,0.00
2013-8-7,82,67,53,64,57,52,99,74,40,30.16,30.07,7,0,7,0.00
2013-8-8,80,71,64,74,68,58,98,90,76,30.10,29.97,10,0,10,0.15
2013-8-9,75,72,70,74,71,69,100,98,94,29.99,29.72,5,0,10,1.17
2013-8-10,86,73,59,71,64,57,100,78,45,29.98,29.75,15,0,15,0.00
2013-8-11,82,66,53,63,57,52,99,76,40,30.06,29.97,9,0,10,0.00
2013-8-12,85,69,58,64,60,56,99,76,41,30.00,29.88,7,0,9,0.00
2013-8-13,75,67,63,69,65,62,98,93,77,29.89,29.65,6,0,7,0.02
2013-8-14,77,66,58,64,57,52,99,74,47,29.93,29.63,16,1,19,0.00
2013-8-15,80,64,51,58,54,50,98,73,39,30.08,29.93,12,0,12,0.00
2013-8-16,81,66,53,62,56,52,97,75,40,30.17,30.07,11,0,11,0.00
2013-8-17,82,66,53,67,59,52,100,80,51,30.25,30.16,5,0,5,0.00
2013-8-18,77,66,56,67,62,55,99,85,64,30.24,30.05,3,0,4,0.00
2013-8-19,82,70,58,67,62,57,99,78,52,30.05,29.92,8,0,8,0.00
2013-8-20,88,73,60,69,64,59,98,76,41,30.06,29.95,6,0,6,0.00
2013-8-21,91,73,59,71,64,58,99,77,42,30.11,29.99,7,0,9,0.00
2013-8-22,86,74,63,75,68,62,97,83,54,30.00,29.79,10,0,11,0.00
2013-8-23,84,72,62,70,62,52,96,71,38,30.10,29.79,13,0,14,0.00
2013-8-24,81,64,50,57,52,44,97,68,32,30.30,30.10,5,0,5,0.00
2013-8-25,85,66,49,62,54,48,99,70,34,30.33,30.15,9,0,9,0.00
2013-8-26,80,71,64,69,64,57,90,79,61,30.15,29.83,14,0,19,0.00
2013-8-27,88,74,65,72,68,63,98,84,54,29.87,29.79,5,0,5,0.01
2013-8-28,86,70,60,72,65,59,100,85,58,29.95,29.82,6,0,6,0.00
2013-8-29,67,65,60,65,62,58,97,92,85,30.05,29.92,4,0,4,0.00
2013-8-30,85,70,60,70,64,58,96,83,57,30.00,29.79,10,0,11,0.00
2013-8-31,81,73,68,75,71,67,99,92,80,29.80,29.75,8,0,9,0.03
2013-9-1,80,73,69,77,72,68,100,96,89,29.85,29.76,4,0,8,0.33
2013-9-2,79,73,70,76,72,70,100,97,88,29.84,29.68,9,0,9,0.71
2013-9-3,80,73,62,74,69,59,100,89,72,29.78,29.66,9,0,10,0.00
2013-9-4,82,67,56,63,58,55,99,76,45,29.89,29.77,13,0,13,0.00
2013-9-5,73,62,49,62,55,45,98,79,42,30.12,29.83,11,0,12,0.02
2013-9-6,72,55,42,51,45,41,99,72,35,30.22,30.06,10,0,10,0.00
2013-9-7,80,62,47,59,52,45,97,73,40,30.06,29.82,9,0,12,0.00
2013-9-8,74,63,48,64,54,42,98,75,36,30.07,29.72,19,1,19,0.03
2013-9-9,70,55,40,52,46,39,100,75,43,30.21,30.06,8,0,10,0.00
2013-9-10,74,64,53,72,62,50,98,92,86,30.13,29.99,15,0,15,0.08
2013-9-11,95,79,68,79,72,67,100,82,51,30.03,29.90,15,0,15,0.00
2013-9-12,88,76,68,76,71,67,98,83,61,29.93,29.64,13,1,15,1.22
2013-9-13,77,67,58,71,65,56,99,93,75,29.73,29.53,12,0,12,0.16
2013-9-14,68,60,51,58,54,49,96,82,65,30.03,29.73,9,0,11,0.00
2013-9-15,71,57,46,55,50,45,100,81,47,30.14,30.02,10,0,10,0.00
2013-9-16,67,57,48,58,51,39,95,83,63,30.22,29.98,14,0,14,0.00
2013-9-17,64,50,38,49,42,36,96,75,45,30.40,30.22,6,0,6,0.00
2013-9-18,74,55,40,54,46,39,100,77,37,30.30,30.11,6,0,8,0.00
2013-9-19,79,59,45,59,52,44,99,80,40,30.11,30.00,6,0,6,0.00
2013-9-20,80,61,47,61,54,46,100,82,43,30.06,29.96,4,0,4,0.00
2013-9-21,75,63,50,66,60,49,100,89,68,30.00,29.69,11,0,13,0.00
2013-9-22,70,64,51,68,58,47,99,83,53,29.80,29.56,12,1,12,0.48
2013-9-23,64,52,43,48,44,41,94,75,52,29.98,29.80,13,1,15,0.00
2013-9-24,69,52,40,50,44,38,100,76,43,29.97,29.78,13,0,14,0.00
2013-9-25,66,53,42,56,48,42,99,85,62,29.96,29.84,13,0,15,0.00
2013-9-26,68,57,52,54,51,48,96,81,52,30.10,29.96,6,0,7,0.00
2013-9-27,67,58,49,57,53,48,96,85,67,30.23,30.09,4,0,5,0.00
2013-9-28,73,56,44,60,51,43,100,86,56,30.30,30.23,7,0,7,0.00
2013-9-29,69,53,44,55,49,43,99,87,50,30.24,30.09,5,0,5,0.00
2013-9-30,70,54,44,54,50,43,100,87,48,30.11,29.93,3,0,4,0.00
2013-10-1,79,58,43,59,51,42,100,83,43,29.94,29.81,6,0,10,0.00
2013-10-2,81,64,50,63,57,49,100,82,51,29.92,29.79,12,0,12,0.00
2013-10-3,78,61,49,58,53,48,99,78,39,30.06,29.92,6,0,6,0.00
2013-10-4,63,56,48,60,54,47,99,94,85,30.06,30.01,3,0,4,0.04
2013-10-5,69,61,56,61,58,56,100,90,72,30.10,30.02,3,0,4,0.01
2013-10-6,59,56,54,58,56,53,100,98,93,30.20,30.08,2,0,3,0.43
2013-10-7,76,65,56,72,63,56,100,94,81,30.10,29.77,17,1,21,0.04
2013-10-8,67,55,43,56,47,41,95,76,42,30.35,29.87,15,0,15,0.00
2013-10-9,62,48,37,50,44,36,99,86,60,30.45,30.34,4,0,5,0.00
2013-10-10,63,50,38,56,47,37,100,91,71,30.34,30.15,3,0,4,0.01
2013-10-11,69,54,44,57,48,39,99,81,38,30.15,30.06,5,0,5,0.00
2013-10-12,60,52,43,57,50,42,100,94,85,30.37,30.12,3,0,5,0.00
2013-10-13,60,50,39,52,47,38,100,89,70,30.42,30.35,4,0,4,0.00
2013-10-14,65,47,32,50,41,32,100,82,45,30.38,30.22,5,0,5,0.00
2013-10-15,66,55,47,58,51,46,98,87,67,30.24,30.15,3,0,3,0.00
2013-10-16,62,54,47,56,52,46,99,93,75,30.15,29.88,3,0,3,0.00
2013-10-17,74,60,50,62,56,50,100,88,57,29.89,29.69,10,0,10,0.01
2013-10-18,66,59,45,61,52,42,99,79,49,29.88,29.58,16,0,16,0.03
2013-10-19,67,52,39,49,44,38,99,76,43,29.94,29.71,5,0,11,0.00
2013-10-20,61,52,39,50,42,34,98,71,37,29.99,29.66,20,1,20,0.00
2013-10-21,67,49,34,45,40,33,99,74,41,30.09,29.96,11,0,13,0.00
2013-10-22,66,52,40,54,46,38,99,80,58,29.96,29.67,13,0,13,0.00
2013-10-23,52,44,35,40,37,33,97,77,51,29.77,29.56,4,0,4,0.00
2013-10-24,53,44,35,38,32,26,91,64,39,29.86,29.61,19,1,19,0.00
2013-10-25,50,39,30,36,30,27,97,71,45,30.13,29.86,15,0,15,0.00
2013-10-26,56,42,28,37,30,26,98,69,34,30.13,29.85,19,1,19,0.00
2013-10-27,56,46,37,41,36,30,96,69,43,30.03,29.77,13,1,16,0.02
2013-10-28,58,43,31,38,32,26,96,67,40,30.33,30.03,18,1,20,0.00
2013-10-29,48,35,25,31,25,20,93,70,34,30.43,30.32,6,0,7,0.00
2013-10-30,52,38,29,43,34,25,97,88,66,30.34,30.16,9,0,9,0.03
2013-10-31,60,46,30,58,44,29,99,96,87,30.22,29.75,11,0,14,0.22
2013-11-1,70,63,55,63,60,53,99,88,76,29.75,29.41,28,4,28,0.07
2013-11-2,66,54,45,53,46,42,98,77,43,29.70,29.55,11,0,12,0.00
2013-11-3,49,42,31,47,31,16,93,67,38,30.40,29.69,14,0,14,0.00
2013-11-4,42,32,24,22,19,15,88,61,33,30.68,30.39,6,0,9,0.00
2013-11-5,50,35,23,34,28,21,94,76,46,30.70,30.48,8,0,10,0.00
2013-11-6,61,49,38,50,42,34,92,77,52,30.49,30.00,15,1,19,0.00
2013-11-7,66,54,38,58,50,33,96,88,72,30.01,29.63,16,1,17,0.16
2013-11-8,48,38,30,36,29,22,87,69,52,30.07,29.78,17,1,17,0.00
2013-11-9,46,38,29,31,26,22,81,64,40,30.19,30.00,16,1,16,0.00
2013-11-10,55,44,39,45,37,31,97,78,58,30.00,29.71,13,0,14,0.06
2013-11-11,52,44,37,34,30,26,75,58,39,30.08,29.82,15,1,17,0.00
2013-11-12,48,36,26,40,27,17,94,72,58,30.17,29.85,14,1,15,0.14
2013-11-13,37,28,21,20,16,12,84,63,39,30.27,30.13,15,1,15,0.00
2013-11-14,51,38,27,27,23,18,71,55,34,30.13,30.01,13,1,15,0.00
2013-11-15,62,44,29,33,24,17,73,48,18,30.17,30.07,12,1,15,0.00
2013-11-16,61,44,32,33,31,25,89,63,26,30.29,30.15,4,0,5,0.00
2013-11-17,51,41,29,46,38,27,98,87,70,30.29,29.81,3,0,3,0.03
2013-11-18,66,56,46,61,47,32,100,73,47,29.81,29.49,20,2,20,0.26
2013-11-19,48,40,30,32,24,18,62,53,40,30.25,29.62,22,2,24,0.00
2013-11-20,42,31,21,19,17,14,85,57,33,30.61,30.25,14,1,16,0.00
2013-11-21,48,32,18,30,22,16,100,69,34,30.62,30.34,11,0,11,0.00
2013-11-22,46,42,37,46,40,30,99,93,74,30.34,29.78,3,0,3,0.17
2013-11-23,46,39,28,45,29,18,99,67,37,29.89,29.74,20,2,22,0.00
2013-11-24,29,25,22,19,7,-2,75,49,30,30.08,29.76,28,3,28,0.00
2013-11-25,34,27,16,17,7,-4,59,43,22,30.34,30.23,12,1,15,0.00
2013-11-26,40,35,30,34,23,16,97,64,48,30.31,30.00,12,0,14,0.12
2013-11-27,62,50,35,61,49,34,100,97,91,30.00,29.18,23,2,23,1.67
2013-11-28,37,31,23,34,19,9,91,63,39,30.41,29.42,17,2,20,0.01
2013-11-29,35,26,20,18,13,3,83,58,35,30.72,30.40,12,0,14,0.00
2013-11-30,34,23,11,25,15,9,91,73,52,30.77,30.40,5,0,5,0.00
2013-12-1,36,33,29,36,31,24,99,93,80,30.40,29.99,5,0,6,0.11
2013-12-2,39,37,35,38,36,35,99,99,97,29.99,29.89,3,0,4,0.01
2013-12-3,48,38,30,41,35,29,99,90,63,29.92,29.82,7,0,7,0.00
2013-12-4,44,33,27,32,29,26,98,86,58,30.17,29.92,6,0,7,0.00
2013-12-5,46,38,28,46,36,26,99,95,90,30.18,29.89,6,0,6,0.00
2013-12-6,54,47,33,54,45,32,100,93,66,30.12,29.82,9,0,10,0.23
2013-12-7,40,33,24,34,29,21,99,86,62,30.42,30.05,15,0,17,0.15
2013-12-8,31,27,21,22,20,17,92,74,58,30.57,30.42,7,0,9,0.00
2013-12-9,35,31,25,34,29,19,99,94,67,30.48,29.86,4,0,4,0.13
2013-12-10,33,31,24,32,28,17,99,92,70,29.97,29.75,12,0,12,0.01
2013-12-11,33,25,19,21,18,16,90,76,56,30.18,29.97,17,1,18,0.00
2013-12-12,27,20,14,19,9,3,90,65,40,30.25,30.04,19,1,19,0.00
2013-12-13,30,21,14,19,13,4,85,71,54,30.38,29.96,17,1,17,0.00
2013-12-14,20,14,10,18,6,-1,94,70,51,30.59,30.13,7,0,8,0.00
2013-12-15,33,26,20,32,25,18,100,94,88,30.13,29.41,4,0,5,0.00
2013-12-16,29,22,14,22,15,8,94,74,50,30.18,29.71,7,0,11,0.00
2013-12-17,18,11,-2,16,7,-6,94,86,67,30.27,29.93,4,0,7,0.00
2013-12-18,35,24,15,24,19,12,98,82,60,30.05,29.84,15,1,15,0.01
2013-12-19,42,32,22,28,25,19,91,77,53,30.09,29.92,22,2,23,0.12
2013-12-20,50,39,28,38,32,26,94,78,59,30.09,29.87,13,1,13,0.80
2013-12-21,56,46,41,47,41,34,96,82,70,29.93,29.82,11,1,12,0.00
2013-12-22,50,40,33,50,39,33,99,98,95,30.01,29.76,9,0,12,0.01
2013-12-23,36,33,32,36,33,32,100,99,99,30.07,29.93,6,0,6,0.62
2013-12-24,36,32,25,36,24,15,100,72,52,30.17,30.02,13,1,17,0.00
2013-12-25,25,19,13,18,8,3,86,63,44,30.52,30.17,16,1,18,0.00
2013-12-26,30,22,13,28,19,10,97,88,80,30.48,30.06,3,0,3,0.00
2013-12-27,33,26,20,24,21,18,96,82,62,30.24,30.16,9,0,12,0.02
2013-12-28,46,32,23,30,25,20,91,77,51,30.19,29.95,16,1,17,0.02
2013-12-29,40,34,27,37,32,24,98,90,72,30.00,29.39,14,1,14,1.15
2013-12-30,41,32,18,37,25,10,99,75,48,30.14,29.49,16,1,18,0.01
2013-12-31,25,18,13,16,8,-1,82,63,46,30.16,29.99,11,0,11,0.00
2014-1-1,28,20,13,15,10,7,84,67,48,30.36,30.16,11,1,15,0.00
2014-1-2,20,11,1,16,8,-3,90,87,80,30.34,29.83,15,1,15,0.00